Home > Time Zones > World Clock > Weather > Yemen > Sana > Past weeks

Flag for Yemen Weather past 2 weeks in Sana, Yemen

Now
72 °F

Passing clouds.


Feels Like: 75 °F
Forecast: 50 / 76 °F
Wind: 9 mph from Northeast

Location: Sana'A Airport

Current Time: Oct 2, 2014 at 7:29:04 PM

Latest Report: Oct 2, 2014 at 7:00 PM


Visibility: N/A

Pressure: 30.27 "Hg

Humidity: 23%

Dew point: 32 °F

Location of SanaLocation

Historic Weather in Sana — Graph

°F

Sana temperature yesterday

Maximum temperature yesterday: 77 °F (at 1:00 PM)
Minimum temperature yesterday: 55 °F (at 6:00 AM)
Average temperature yesterday: 68 °F

Past Weeks' High & Low Weather Summary

 TemperatureHumidityPressure
High82 °F (Sep 18, 2:00 PM)68% (Sep 22, 2:00 AM)30.39 "Hg (Sep 22, 2:00 AM)
Low54 °F (Sep 21, 4:00 AM)8% (Sep 21, 3:00 PM)30.15 "Hg (Sep 17, 6:00 PM)
Average69 °F26%30.28 "Hg
* Reported Sep 17 6:00 PM — Oct 2 6:00 PM, Sana, Weather by CustomWeather, © 2014

Note: Actual official high and low records may vary slightly from our data, if they occured in-between our weather recording intervals... More about our weather records

Advertising

Sana weather history for previous 24 hours

 ConditionsComfort  
Time TempWeatherWind HumidityBarometerVisibility
6:00 PM
Oct 2
73 °FPassing clouds.10 mph22%30.24 "HgN/A
5:00 PM75 °FScattered clouds.12 mph21%30.21 "HgN/A
4:00 PM77 °FScattered clouds.13 mph21%30.21 "HgN/A
3:00 PM77 °FScattered clouds.12 mph21%30.21 "HgN/A
2:00 PM77 °FScattered clouds.7 mph22%30.24 "HgN/A
1:00 PM77 °FScattered clouds.5 mph21%30.27 "HgN/A
12:00 PM75 °FScattered clouds.5 mph24%30.30 "HgN/A
11:00 AM72 °FScattered clouds.7 mph29%30.33 "HgN/A
10:00 AM72 °FScattered clouds.6 mph31%30.36 "HgN/A
9:00 AM70 °FPassing clouds.9 mph35%30.36 "HgN/A
8:00 AM66 °FPassing clouds.6 mph40%30.33 "HgN/A
7:00 AM59 °FPassing clouds.No wind39%30.33 "HgN/A
6:00 AM55 °FPassing clouds.3 mph44%30.30 "HgN/A
5:00 AM55 °FClear.No wind47%30.30 "Hg10 mi
4:00 AM55 °FPassing clouds.3 mph44%30.27 "HgN/A
3:00 AM55 °FPassing clouds.3 mph44%30.27 "HgN/A
2:00 AM59 °FPassing clouds.1 mph39%30.27 "HgN/A
1:00 AM61 °FPassing clouds.2 mph42%30.27 "HgN/A
12:00 AM64 °FPassing clouds.3 mph37%30.30 "HgN/A
11:00 PM
Oct 1
66 °FPassing clouds.5 mph30%30.30 "HgN/A
10:00 PM68 °FPassing clouds.5 mph28%30.30 "HgN/A
9:00 PM68 °FPassing clouds.3 mph28%30.30 "HgN/A
8:00 PM70 °FPassing clouds.5 mph29%30.30 "HgN/A
7:00 PM72 °FPassing clouds.8 mph29%30.24 "HgN/A
Weather by CustomWeather, © 2014

See weather overviewHow to use our weather pages